Minot, ND

2:28 AM CDT on June 24, 2017 (GMT -0500)
Minot International

Weather History for KMOT - September, 2013

Change the Weather History Date:

Sunday, September 15, 2013

  Actual Average Record
Temperature  
Mean Temperature 52 °F 58 °F  
Max Temperature 63 °F 70 °F 97 °F (1948)
Min Temperature 40 °F 46 °F 15 °F (1916)
Degree Days  
Heating Degree Days 13 8  
Month to date heating degree days 24 86  
Since 1 July heating degree days 93 157  
Cooling Degree Days 0 1  
Month to date cooling degree days 46 24  
Year to date cooling degree days 417 435  
Growing Degree Days 2 (Base 50)    
Moisture  
Dew Point 41 °F    
Average Humidity 65    
Maximum Humidity 93    
Minimum Humidity 36    
Precipitation  
Precipitation 0.00 in 0.05 in 1.22 in (2016)
Month to date precipitation 1.07 0.75  
Year to date precipitation 21.25 14.19  
Sea Level Pressure  
Sea Level Pressure 30.30 in    
Wind  
Wind Speed 6 mph (NE)    
Max Wind Speed 10 mph    
Max Gust Speed 15 mph    
Visibility 10 miles    
Events      
T = Trace of Precipitation, MM = Missing Value Source: NWS Daily Summary

Daily Weather History Graph

Daily Weather History Graph

Search for Another Location

Airport or City:

Trip Planner

Search our weather history database for the weather conditions in past years. The results will help you decide how hot, cold, wet, or windy it might be!

Date:

Astronomy

Sep. 15, 2013 Rise Set
Actual Time 7:22 AM CDT 7:56 PM CDT
Civil Twilight 6:51 AM CDT 8:28 PM CDT
Nautical Twilight 6:13 AM CDT 9:05 PM CDT
Astronomical Twilight 5:34 AM CDT 9:44 PM CDT
Moon 5:39 PM CDT (9/15) 2:46 AM CDT (9/15)
Length of Visible Light 13h 37m
Length of Day
12h 34m
Waxing Gibbous, 82% of the Moon is Illuminated
Sep 15
Waxing Gibbous
Sep 19
Full
Sep 26
Last Quarter
Oct 4
New
Oct 11
First Quarter

Hourly Weather History & Observations

Time (CDT) Temp. Windchill Dew Point Humidity Pressure Visibility Wind Dir Wind Speed Gust Speed Precip Events Conditions
12:54 AM 48.0 °F - 44.1 °F 86% 30.15 in 10.0 mi NNE 5.8 mph - N/A   Clear
1:54 AM 45.0 °F 41.8 °F 42.1 °F 90% 30.18 in 10.0 mi NNW 5.8 mph - N/A   Clear
2:54 AM 44.1 °F 40.1 °F 41.0 °F 89% 30.19 in 10.0 mi NW 6.9 mph - N/A   Clear
3:54 AM 43.0 °F 39.5 °F 39.9 °F 89% 30.22 in 10.0 mi NW 5.8 mph - N/A   Clear
4:54 AM 43.0 °F 38.8 °F 39.9 °F 89% 30.24 in 10.0 mi NNW 6.9 mph - N/A   Clear
5:54 AM 41.0 °F 36.4 °F 39.0 °F 93% 30.27 in 10.0 mi NNW 6.9 mph - N/A   Clear
6:51 AM 41.0 °F 37.1 °F 39.2 °F 93% 30.26 in 10.0 mi NNW 5.8 mph - N/A   Mostly Cloudy
6:54 AM 41.0 °F 36.4 °F 39.0 °F 93% 30.29 in 10.0 mi NNW 6.9 mph - N/A   Mostly Cloudy
7:54 AM 44.1 °F 40.8 °F 41.0 °F 89% 30.31 in 10.0 mi NNW 5.8 mph - N/A   Overcast
8:34 AM 46.4 °F 43.5 °F 42.8 °F 87% 30.29 in 10.0 mi North 5.8 mph - N/A   Scattered Clouds
8:54 AM 48.0 °F - 43.0 °F 83% 30.32 in 10.0 mi NNE 5.8 mph - N/A   Scattered Clouds
9:01 AM 48.2 °F - 44.6 °F 87% 30.30 in 10.0 mi North 4.6 mph - N/A   Overcast
9:09 AM 48.2 °F - 42.8 °F 82% 30.30 in 10.0 mi North 5.8 mph - N/A   Scattered Clouds
9:54 AM 50.0 °F - 43.0 °F 77% 30.34 in 10.0 mi NE 6.9 mph - N/A   Scattered Clouds
10:13 AM 50.0 °F - 42.8 °F 76% 30.32 in 10.0 mi NE 5.8 mph - N/A   Mostly Cloudy
10:21 AM 51.8 °F - 42.8 °F 71% 30.32 in 10.0 mi ENE 8.1 mph - N/A   Scattered Clouds
10:54 AM 51.1 °F - 42.1 °F 71% 30.35 in 10.0 mi Variable 3.5 mph - N/A   Scattered Clouds
11:01 AM 51.8 °F - 42.8 °F 71% 30.33 in 10.0 mi NE 6.9 mph - N/A   Mostly Cloudy
11:54 AM 54.0 °F - 41.0 °F 62% 30.36 in 10.0 mi Variable 5.8 mph - N/A   Scattered Clouds
12:01 PM 55.4 °F - 41.0 °F 58% 30.33 in 10.0 mi Variable 3.5 mph - N/A   Mostly Cloudy
12:11 PM 55.4 °F - 41.0 °F 58% 30.33 in 10.0 mi Variable 3.5 mph - N/A   Scattered Clouds
12:54 PM 57.0 °F - 41.0 °F 55% 30.35 in 10.0 mi ENE 4.6 mph - N/A   Clear
1:54 PM 60.1 °F - 41.0 °F 49% 30.35 in 10.0 mi NE 4.6 mph - N/A   Clear
2:54 PM 61.0 °F - 39.0 °F 44% 30.34 in 10.0 mi East 6.9 mph - N/A   Clear
3:54 PM 63.0 °F - 36.0 °F 37% 30.32 in 10.0 mi East 5.8 mph - N/A   Clear
4:54 PM 62.1 °F - 37.0 °F 39% 30.31 in 10.0 mi East 8.1 mph - N/A   Clear
5:54 PM 62.1 °F - 39.0 °F 43% 30.30 in 10.0 mi ESE 6.9 mph - N/A   Clear
6:54 PM 60.1 °F - 42.1 °F 51% 30.30 in 10.0 mi East 5.8 mph - N/A   Clear
7:54 PM 53.1 °F - 39.0 °F 59% 30.30 in 10.0 mi East 5.8 mph - N/A   Clear
8:54 PM 51.1 °F - 41.0 °F 68% 30.30 in 10.0 mi ESE 5.8 mph - N/A   Clear
9:54 PM 48.9 °F - 39.0 °F 69% 30.30 in 10.0 mi ESE 6.9 mph - N/A   Clear
10:54 PM 46.9 °F - 41.0 °F 80% 30.29 in 10.0 mi SE 6.9 mph - N/A   Clear
11:54 PM 45.0 °F 41.2 °F 39.0 °F 80% 30.29 in 10.0 mi SE 6.9 mph - N/A   Clear